(168270) = 2007 PY1

Discovered at Great Shefford on 2007-08-06 by P. Birtwhistle.

Orbit

Orbit type: Main Belt

Note: WebGL enabled browser required.

epoch2023-09-13.0
epoch JD2460200.5
perihelion date2023-07-07.86461
perihelion JD2460133.36461
argument of perihelion (°)142.02980
ascending node (°)141.70966
inclination (°)26.22793
eccentricity0.0539489
perihelion distance (AU)2.4057054
Tisserand w.r.t. Jupiter3.3
ΔV w.r.t. Earth (km/sec)12.9
semimajor axis (AU)2.5428915
mean anomaly (°)16.31787
mean daily motion (°/day)0.24305920
aphelion distance (AU)2.680
period (years)4.06
P-vector [x]0.27675840
P-vector [y]-0.95377189
P-vector [z]-0.11714936
Q-vector [x]0.92109266
Q-vector [y]0.29804573
Q-vector [z]-0.25051357
absolute magnitude16.28
phase slope0.15
uncertainty0
referenceMPEC 2023-X132
observations used386
oppositions14
arc length (days)7311
first opposition used2002
last opposition used2022
residual rms (arc-secs)0.74
perturbers coarse indicatorM-v
perturbers precise indicator003Ek
first observation date used2002-03-21.0
last observation date used2022-03-27.0
computer nameMPCLINUX
JD of orbit computation2456731.447144
perihelion JD uncertainty (days)5.4672E-04
argument of perihelion uncertainty (°)1.3573E-04
ascending node uncertainty (°)1.1404E-05
inclination uncertainty (°)1.1559E-05
eccentricity uncertainty 1.0102E-07
perihelion distance uncertainty (AU)2.5872E-07
Minimum Orbit Intersection Distances (in AU)
for orbit epoch: 2460200.5, reference: E2023-XD2
Mercury1.989
Venus1.70013
Earth1.41066
Mars0.96937
Jupiter2.56515
Saturn6.49899
Uranus15.8409
Neptune27.4687

Observations

405 total observations over interval: 2002 03 21.30740 – 2022 03 27.281141
These data are available for download (format description).

Date (UT) J2000 RA J2000 Dec Magn Location Ref
2002 03 21.30740 13 15 57.25 +24 00 16.7 19.4   704 – Lincoln Laboratory ETS, New Mexico MPS 214301
2002 03 21.31916 13 15 56.85 +24 00 25.2 19.7   704 – Lincoln Laboratory ETS, New Mexico MPS 214301
2002 03 21.33095 13 15 56.25 +24 00 36.5 19.4   704 – Lincoln Laboratory ETS, New Mexico MPS 214301
2002 03 21.35453 13 15 55.39 +24 00 57.8 19.6   704 – Lincoln Laboratory ETS, New Mexico MPS 214301
2002 04 09.21189 13 01 33.00 +27 46 29.8 20.3   644 – Palomar Mountain/NEAT MPS 214301
2002 04 09.23167 13 01 32.01 +27 46 40.1 20.0   644 – Palomar Mountain/NEAT MPS 214301
2002 04 09.25153 13 01 30.99 +27 46 50.6 20.1   644 – Palomar Mountain/NEAT MPS 214301
2003 07 24.39020 21 53 35.17 -08 24 23.7 19.4   644 – Palomar Mountain/NEAT MPS 214301
2003 07 24.41162 21 53 34.42 -08 24 42.1 19.5   644 – Palomar Mountain/NEAT MPS 214301
2003 07 24.43295 21 53 33.69 -08 25 00.3 19.6   644 – Palomar Mountain/NEAT MPS 214301
2003 07 31.40978 21 49 17.69 -10 09 34.8 18.7 R 608 – Haleakala-AMOS MPS 218753
2003 07 31.42035 21 49 17.23 -10 09 46.4 18.6 R 608 – Haleakala-AMOS MPS 218753
2003 08 25.26765 21 29 54.38 -16 58 41.1 19.5 C 704 – Lincoln Laboratory ETS, New Mexico MPS 291370
2003 08 25.29278 21 29 53.18 -16 59 04.1 18.7 C 704 – Lincoln Laboratory ETS, New Mexico MPS 291370
2003 08 25.30543 21 29 52.51 -16 59 17.7 19.1 C 704 – Lincoln Laboratory ETS, New Mexico MPS 291370
2003 08 25.31788 21 29 51.95 -16 59 28.0 19.3 C 704 – Lincoln Laboratory ETS, New Mexico MPS 291370
2003 09 03.30020 21 23 27.57 -19 14 54.7 20.8   608 – Haleakala-AMOS MPS 214301
2003 09 03.31164 21 23 27.02 -19 15 04.6 20.9   608 – Haleakala-AMOS MPS 214301
2003 09 03.32227 21 23 26.64 -19 15 13.1 20.9   608 – Haleakala-AMOS MPS 214301
2006 02 24.39389 12 55 09.80 +18 20 27.9 19.8 V 703 – Catalina Sky Survey MPS 214301
2006 02 24.40260 12 55 09.55 +18 20 35.5 20.8 V 703 – Catalina Sky Survey MPS 214301
2006 02 24.41133 12 55 09.55 +18 20 44.7 19.9 V 703 – Catalina Sky Survey MPS 214301
2006 02 24.42012 12 55 09.15 +18 20 54.8 20.0 V 703 – Catalina Sky Survey MPS 214301
2006 03 25.34402 12 38 36.27 +25 46 26.7 19.7 V 703 – Catalina Sky Survey MPS 214301
2006 03 25.35120 12 38 35.98 +25 46 30.7 20.2 V 703 – Catalina Sky Survey MPS 214301
2006 03 25.35838 12 38 35.66 +25 46 38.7 20.5 V 703 – Catalina Sky Survey MPS 214301
2006 03 25.36563 12 38 35.26 +25 46 42.7 20.1 V 703 – Catalina Sky Survey MPS 214301
2007 08 06.96302 21 06 54.10 -10 37 40.6   J95 – Great Shefford MPS 212675
2007 08 06.96962 21 06 53.75 -10 37 47.0 19.0 R J95 – Great Shefford MPS 212675
2007 08 06.98903 21 06 52.73 -10 38 05.7   J95 – Great Shefford MPS 212675
2007 08 06.99208 21 06 52.61 -10 38 09.2 19.1 R J95 – Great Shefford MPS 212675
2007 08 07.91552 21 06 06.22 -10 53 14.4   J95 – Great Shefford MPS 212675
2007 08 07.93043 21 06 05.49 -10 53 29.3   J95 – Great Shefford MPS 212675
2007 08 07.93308 21 06 05.34 -10 53 31.9 19.1 R J95 – Great Shefford MPS 212675
2007 08 09.97373 21 04 22.45 -11 27 02.2   J95 – Great Shefford MPS 212675
2007 08 09.97936 21 04 22.16 -11 27 07.7   J95 – Great Shefford MPS 212675
2007 08 09.98517 21 04 21.86 -11 27 13.3 19.0 R J95 – Great Shefford MPS 212675
2007 08 11.89054 21 02 46.29 -11 58 36.0   J95 – Great Shefford MPS 213179
2007 08 11.89475 21 02 46.14 -11 58 39.7   J95 – Great Shefford MPS 213179
2007 08 11.89895 21 02 45.89 -11 58 44.5 18.7 R J95 – Great Shefford MPS 213179
2007 08 13.23534 21 01 39.13 -12 20 44.3 19.1   704 – Lincoln Laboratory ETS, New Mexico MPS 213179
2007 08 13.24749 21 01 38.57 -12 20 55.3 19.4   704 – Lincoln Laboratory ETS, New Mexico MPS 213179
2007 08 13.25957 21 01 37.96 -12 21 07.0 19.2   704 – Lincoln Laboratory ETS, New Mexico MPS 213179
2007 08 16.21913 20 59 12.89 -13 09 43.4 19.8   704 – Lincoln Laboratory ETS, New Mexico MPS 213898
2007 08 16.23155 20 59 12.18 -13 09 55.5 19.4   704 – Lincoln Laboratory ETS, New Mexico MPS 213898
2007 08 16.24400 20 59 11.65 -13 10 07.1 19.6   704 – Lincoln Laboratory ETS, New Mexico MPS 213898
2007 08 16.25644 20 59 10.94 -13 10 20.7 19.6   704 – Lincoln Laboratory ETS, New Mexico MPS 213898
2007 08 29.93172 20 49 26.92 -16 43 52.9   J95 – Great Shefford MPS 214301
2007 08 29.94381 20 49 26.50 -16 44 03.2 19.2 R J95 – Great Shefford MPS 214301
2007 09 04.22839 20 46 38.96 -17 58 13.0 20.1 V 703 – Catalina Sky Survey MPS 214529
2007 09 04.23686 20 46 38.78 -17 58 20.8 20.9 V 703 – Catalina Sky Survey MPS 214529
2007 09 04.24536 20 46 38.56 -17 58 25.3 19.8 V 703 – Catalina Sky Survey MPS 214529
2007 09 04.25384 20 46 38.24 -17 58 33.8 20.1 V 703 – Catalina Sky Survey MPS 214529
2007 09 10.19522 20 44 20.50 -19 14 36.2 20.0 V G96 – Mt. Lemmon Survey MPS 215196
2007 09 10.20183 20 44 20.36 -19 14 41.0 19.8 V G96 – Mt. Lemmon Survey MPS 215196
2007 09 10.20848 20 44 20.22 -19 14 46.4 19.5 V G96 – Mt. Lemmon Survey MPS 215196
2007 09 10.21506 20 44 20.11 -19 14 50.1 19.4 V G96 – Mt. Lemmon Survey MPS 215196
2009 11 22.51776 11 28 52.64 +07 06 26.3 21.7 V 691 – Steward Observatory, Kitt Peak-Spacewatch MPS 306454
2009 11 22.53040 11 28 53.63 +07 06 25.5 21.5 V 691 – Steward Observatory, Kitt Peak-Spacewatch MPS 306454
2009 11 22.54305 11 28 54.52 +07 06 25.0 21.0 V 691 – Steward Observatory, Kitt Peak-Spacewatch MPS 306454
2010 01 09.53854 12 18 12.79 +09 15 15.8 20.6 i 568 – Maunakea MPS 1137000
2010 01 09.61537 12 18 15.76 +09 15 50.8 20.6 i 568 – Maunakea MPS 1137000
2010 01 09.65976 12 18 17.46 +09 16 11.1 20.8 i 568 – Maunakea MPS 1137000
2010 02 16.429123 12 27 15.370 +16 53 46.38 21.17 g F51 – Pan-STARRS 1, Haleakala MPS 338659
2010 02 16.438124 12 27 15.226 +16 53 55.14 21.03 g F51 – Pan-STARRS 1, Haleakala MPS 338659
2010 02 23.625218 12 24 50.283 +18 50 24.19 20.02 i F51 – Pan-STARRS 1, Haleakala MPS 320448
2010 02 23.633662 12 24 50.063 +18 50 32.52 20.11 i F51 – Pan-STARRS 1, Haleakala MPS 320448
2010 03 05.42501 12 19 37.09 +21 30 38.0 20.0 V 703 – Catalina Sky Survey MPS 317677
2010 03 05.43026 12 19 36.94 +21 30 45.2 20.4 V 703 – Catalina Sky Survey MPS 317677
2010 03 05.43552 12 19 36.73 +21 30 46.6 20.1 V 703 – Catalina Sky Survey MPS 317677
2010 03 05.44080 12 19 36.48 +21 30 53.1 19.2 V 703 – Catalina Sky Survey MPS 317677
2010 04 09.45377 11 53 22.49 +28 26 00.2 20.3 V 291 – LPL/Spacewatch II MPS 321978
2010 04 09.45813 11 53 22.31 +28 26 01.7 20.3 V 291 – LPL/Spacewatch II MPS 321978
2010 04 09.46260 11 53 22.14 +28 26 03.2 20.4 V 291 – LPL/Spacewatch II MPS 321978
2010 06 02.406264 11 52 41.46 +26 46 51.2   C51 – WISE MPS 331755
2010 06 02.538568 11 52 46.39 +26 45 51.8   C51 – WISE MPS 331755
2010 06 02.803176 11 52 56.31 +26 43 53.7   C51 – WISE MPS 331755
2010 06 02.935479 11 53 01.28 +26 42 54.9   C51 – WISE MPS 331755
2010 06 03.001696 11 53 03.79 +26 42 24.5   C51 – WISE MPS 331755
2010 06 03.067784 11 53 06.30 +26 41 55.6   C51 – WISE MPS 331755
2010 06 03.133872 11 53 08.81 +26 41 25.2   C51 – WISE MPS 331755
2010 06 03.133999 11 53 08.85 +26 41 25.1   C51 – WISE MPS 331755
2010 06 03.200087 11 53 11.34 +26 40 55.8   C51 – WISE MPS 331755
2010 06 03.266175 11 53 13.87 +26 40 25.8   C51 – WISE MPS 331755
2010 06 03.266302 11 53 13.86 +26 40 25.8   C51 – WISE MPS 331755
2010 06 03.332391 11 53 16.38 +26 39 56.1   C51 – WISE MPS 331755
2010 06 03.398479 11 53 18.95 +26 39 26.6   C51 – WISE MPS 331755
2010 06 03.530781 11 53 24.05 +26 38 26.6   C51 – WISE MPS 331755
2010 06 03.663084 11 53 29.12 +26 37 26.4   C51 – WISE MPS 331755
2010 06 03.795389 11 53 34.24 +26 36 26.2   C51 – WISE MPS 331755
2011 05 06.42589 20 39 55.08 +00 09 49.4 20.9 V G96 – Mt. Lemmon Survey MPS 381952
2011 05 06.43171 20 39 55.40 +00 09 51.0 20.6 V G96 – Mt. Lemmon Survey MPS 381952
2011 05 06.43754 20 39 55.69 +00 09 52.1 21.1 V G96 – Mt. Lemmon Survey MPS 381952
2011 05 06.44337 20 39 55.98 +00 09 53.1 20.7 V G96 – Mt. Lemmon Survey MPS 381952
2011 05 07.40913 20 40 46.45 +00 12 59.1 21.4 V G96 – Mt. Lemmon Survey MPS 382924
2011 05 07.41581 20 40 46.77 +00 13 00.4 21.2 V G96 – Mt. Lemmon Survey MPS 382924
2011 05 07.42257 20 40 47.10 +00 13 01.7 20.9 V G96 – Mt. Lemmon Survey MPS 382924
2011 05 07.42940 20 40 47.46 +00 13 02.9 20.9 V G96 – Mt. Lemmon Survey MPS 382924
